Home   Weather   Key West   Past weeks

Flag for USA Past Weather in Key West, Florida, USA — Yesterday and Last 2 Weeks

Now
86 °F

Scattered clouds.


Feels Like: 100 °F
Forecast: 84 / 89 °F
Wind: 9 mph from East

Location: Key West International Airport

Current Time: Jul 25, 2017 at 8:48:05 am

Latest Report: Jul 25, 2017 at 7:53 am


Visibility: 10 mi

Pressure: 30.10 "Hg

Humidity: 80%

Dew Point: 79 °F

Location of Key WestLocation

Past Weather in Key West — Graph

°F

Key West Temperature Yesterday

Maximum temperature yesterday: 89 °F (at 1:53 pm)
Minimum temperature yesterday: 85 °F (at 12:53 am)
Average temperature yesterday: 87 °F

High & Low Weather Summary for the Past Weeks

 TemperatureHumidityPressure
High91 °F (Jul 12, 2:53 pm)96% (Jul 16, 4:53 am)30.13 "Hg (Jul 16, 4:53 am)
Low76 °F (Jul 16, 3:43 am)57% (Jul 23, 4:53 pm)29.95 "Hg (Jul 16, 4:53 am)
Average85 °F75%30.04 "Hg
* Reported Jul 10 6:02 am — Jul 25 6:53 am, Key West. Weather by CustomWeather, © 2017

Note: Actual official high and low records may vary slightly from our data, if they occured in-between our weather recording intervals... More about our weather records

Advertising

Key West Weather History for the Previous 24 Hours

Scroll right to see more
 ConditionsComfort  
Time TempWeatherWind HumidityBarometerVisibility
6:53 am
Tue, Jul 25
85 °FScattered clouds.9 mph83%30.10 "Hg10 mi
5:53 am85 °FPassing clouds.12 mph80%30.08 "Hg10 mi
5:42 am85 °FPartly cloudy.9 mph80%30.08 "Hg10 mi
4:53 am85 °FPassing clouds.10 mph83%30.07 "Hg10 mi
3:53 am85 °FPassing clouds.9 mph80%30.06 "Hg10 mi
2:53 am86 °FPassing clouds.9 mph77%30.07 "Hg10 mi
1:53 am86 °FPassing clouds.13 mph80%30.07 "Hg10 mi
12:53 am86 °FClear.10 mph80%30.07 "Hg10 mi
11:53 pm
Mon, Jul 24
86 °FPassing clouds.12 mph83%30.09 "Hg10 mi
10:53 pm86 °FClear.10 mph80%30.09 "Hg10 mi
9:53 pm86 °FPassing clouds.12 mph77%30.09 "Hg10 mi
8:53 pm86 °FClear.9 mph77%30.07 "Hg10 mi
7:53 pm87 °FSunny.9 mph75%30.04 "Hg10 mi
6:53 pm88 °FSunny.8 mph73%30.03 "Hg10 mi
5:53 pm88 °FSunny.8 mph70%30.02 "Hg10 mi
4:53 pm89 °FPassing clouds.9 mph68%30.03 "Hg10 mi
3:53 pm88 °FPassing clouds.8 mph70%30.05 "Hg10 mi
2:53 pm89 °FPassing clouds.9 mph70%30.07 "Hg10 mi
1:53 pm89 °FSunny.10 mph70%30.08 "Hg10 mi
12:53 pm88 °FPassing clouds.9 mph70%30.09 "Hg10 mi
11:53 am88 °FSunny.10 mph67%30.09 "Hg10 mi
10:53 am87 °FScattered clouds.10 mph69%30.09 "Hg10 mi
9:53 am86 °FSunny.10 mph77%30.08 "Hg10 mi
8:53 am86 °FPassing clouds.8 mph75%30.07 "Hg10 mi
Weather by CustomWeather, © 2017

See weather overviewHow to use our weather pages